Terug naar catalogus

SL-16 DEB

ActiefSSO
NORAD 27007·DEBRIS·🇷🇺 Russia

Gelanceerd Dec 10, 2001 vanaf Baikonur Cosmodrome

Loading…

Volgende Passages (komende 24 uur)

TLE

VersSource: Space-Track

Epoch: Sep 14, 2026, 09:07 UTC

1 27007U 01056G   26257.38036190  .00000740  00000-0  75896-3 0  9999
2 27007  99.5116  52.5118 0011866  71.1276 289.1161 13.79777342240922

Volg SL-16 DEB in realtime met AllMySat

Download on the App Store